EW0538 Weather Reports


time (UTC)temp
C
wind
direction
speed
KPH
gust
KPH
rain 1hr
cm
rain 24hr
cm
rain mn
cm
humidity
%
barometer
mb
20220124114849 -13 148 0.0 0.0 0.00 0.00 0.00 91 1030.3
20220124113845 -13 232 0.0 0.0 0.00 0.00 0.00 91 1030.1
20220124112831 -13 226 0.0 0.0 0.00 0.00 0.00 91 1030.2
20220124111801 -12 100 0.0 0.0 0.00 0.00 0.00 91 1029.9
20220124110807 -12 260 0.0 0.0 0.00 0.00 0.00 91 1030.1
20220124105748 -12 75 0.0 0.0 0.00 0.00 0.00 90 1029.9
20220124104727 -12 146 0.0 0.0 0.00 0.00 0.00 90 1029.9
20220124103657 -12 226 0.0 0.0 0.00 0.00 0.00 91 1030.2
20220124102633 -12 100 0.0 0.0 0.00 0.00 0.00 91 1030.1
20220124101646 -12 235 0.0 0.0 0.00 0.00 0.00 91 1030.4
20220124100645 -12 248 0.0 0.0 0.00 0.00 0.00 72 1030.4
20220124095705 -12 119 0.0 0.0 0.00 0.00 0.00 72 1030.4
20220124094639 -12 119 0.0 0.0 0.00 0.00 0.00 73 1030.5
20220124093622 -12 122 0.0 0.0 0.00 0.00 0.00 72 1030.6
20220124092639 -12 122 0.0 0.0 0.00 0.00 0.00 72 1030.4
20220124091645 -12 122 0.0 0.0 0.00 0.00 0.00 72 1030.5
20220124090639 -12 122 0.0 0.0 0.00 0.00 0.00 72 1030.4
20220124085702 -12 122 0.0 0.0 0.00 0.00 0.00 71 1030.5
20220124084627 -12 122 0.0 0.0 0.00 0.00 0.00 71 1030.5
20220124083609 -12 122 0.0 0.0 0.00 0.00 0.00 71 1030.5
20220124082554 -11 122 0.0 0.0 0.00 0.00 0.00 72 1030.5
20220124081547 -11 122 0.0 0.0 0.00 0.00 0.00 72 1030.6
20220124080528 -11 122 0.0 0.0 0.00 0.00 0.00 71 1030.6
20220124075456 -11 122 0.0 0.0 0.00 0.00 0.00 71 1030.7
20220124074445 -11 122 0.0 0.0 0.00 0.00 0.00 72 1030.8
20220124073446 -11 122 0.0 0.0 0.00 0.00 0.00 71 1030.9
20220124072454 -11 122 0.0 0.0 0.00 0.00 0.00 70 1031.0
20220124071420 -11 122 0.0 0.0 0.00 0.00 0.00 70 1030.9
20220124070428 -10 122 0.0 0.0 0.00 0.00 0.00 71 1030.9
20220124065353 -10 122 0.0 0.0 0.00 0.00 0.00 71 1030.9
20220124064416 -10 122 0.0 0.0 0.00 0.00 0.00 70 1030.9
20220124063409 -10 122 0.0 0.0 0.00 0.00 0.00 70 1031.1
20220124062344 -10 122 0.0 0.0 0.00 0.00 0.00 69 1031.2
20220124061310 -10 122 0.0 0.0 0.00 0.00 0.00 69 1031.1
20220124060305 -10 122 0.0 0.0 0.00 0.00 0.00 69 1031.0
20220124055305 -10 122 0.0 0.0 0.00 0.00 0.00 69 1031.0
20220124054257 -10 122 0.0 0.0 0.00 0.00 0.00 68 1031.0
20220124053319 -9 122 0.0 0.0 0.00 0.00 0.00 69 1031.1
20220124052245 -9 122 0.0 0.0 0.00 0.00 0.00 69 1030.9
20220124051232 -9 122 0.0 0.0 0.00 0.00 0.00 68 1030.9
20220124050221 -8 122 0.0 0.0 0.00 0.00 0.00 68 1030.8
20220124045217 -8 122 0.0 0.0 0.00 0.00 0.00 67 1030.7
20220124044155 -8 122 0.0 0.0 0.00 0.00 0.00 67 1030.7
20220124043122 -8 122 0.0 0.0 0.00 0.00 0.00 66 1030.8
20220124042058 -8 122 0.0 0.0 0.00 0.00 0.00 66 1030.7
20220124041040 -7 122 0.0 0.0 0.00 0.00 0.00 66 1030.9
20220124040028 -7 122 0.0 0.0 0.00 0.00 0.00 66 1030.8
20220124034958 -7 122 0.0 0.0 0.00 0.00 0.00 65 1030.9
20220124033925 -7 122 0.0 0.0 0.00 0.00 0.00 64 1031.0
20220124032932 -6 122 0.0 0.0 0.00 0.00 0.00 64 1031.1
20220124031929 -6 122 0.0 0.0 0.00 0.00 0.00 63 1031.1
20220124030946 -6 122 0.0 0.0 0.00 0.00 0.00 63 1031.0
20220124030005 -6 122 0.0 0.0 0.00 0.00 0.00 63 1030.9
20220124025026 -5 122 0.0 0.0 0.00 0.00 0.00 63 1031.0
20220124024002 -5 122 0.0 0.0 0.00 0.00 0.00 62 1030.9
20220124022934 -5 122 0.0 0.0 0.00 0.00 0.00 61 1030.8
20220124021911 -4 75 0.0 1.6 0.00 0.00 0.00 62 1030.7
20220124020847 -5 293 0.0 0.0 0.00 0.00 0.00 61 1030.7
20220124015845 -5 293 0.0 0.0 0.00 0.00 0.00 60 1030.5
20220124014829 -4 293 0.0 0.0 0.00 0.00 0.00 60 1030.4
20220124013823 -4 293 0.0 0.0 0.00 0.00 0.00 58 1030.1
20220124012823 -3 293 0.0 0.0 0.00 0.00 0.00 58 1030.1
20220124011755 -3 293 0.0 0.0 0.00 0.00 0.00 57 1029.9
20220124010752 -3 293 0.0 0.0 0.00 0.00 0.00 57 1029.7
20220124005742 -3 293 0.0 0.0 0.00 0.00 0.00 54 1029.5
20220124004740 -2 293 0.0 0.0 0.00 0.00 0.00 54 1029.4
20220124003753 -2 293 0.0 0.0 0.00 0.00 0.00 51 1029.4
20220124002725 -1 292 1.6 8.0 0.00 0.00 0.00 50 1029.3
20220124001746 -1 68 1.6 8.0 0.00 0.00 0.00 50 1029.2
20220124000809 0 115 0.0 1.6 0.00 0.00 0.00 48 1029.1
20220123235816 0 86 0.0 3.2 0.00 0.00 0.00 46 1029.1
20220123234836 0 108 0.0 0.0 0.00 0.00 0.00 46 1029.0
20220123233809 0 104 0.0 0.0 0.00 0.00 0.00 48 1028.8
20220123232808 0 103 0.0 0.0 0.00 0.00 0.00 46 1028.8
20220123231805 0 103 0.0 0.0 0.00 0.00 0.00 44 1028.6
20220123230754 1 103 0.0 0.0 0.00 0.00 0.00 43 1028.7
20220123225729 1 103 0.0 0.0 0.00 0.00 0.00 41 1028.7
20220123224746 2 103 0.0 0.0 0.00 0.00 0.00 39 1028.8
20220123223747 2 103 0.0 0.0 0.00 0.00 0.00 38 1028.9
20220123222748 3 103 0.0 0.0 0.00 0.00 0.00 35 1029.0
20220123221810 3 103 0.0 0.0 0.00 0.00 0.00 36 1029.2
20220123220737 3 117 0.0 1.6 0.00 0.00 0.00 36 1029.3
20220123215748 2 121 0.0 0.0 0.00 0.00 0.00 37 1029.5
20220123214728 2 121 0.0 0.0 0.00 0.00 0.00 37 1029.5
20220123213732 2 117 0.0 1.6 0.00 0.00 0.00 39 1029.6
20220123212715 2 155 0.0 0.0 0.00 0.00 0.00 38 1029.7
20220123211701 2 148 0.0 1.6 0.00 0.00 0.00 39 1029.9
20220123210637 2 131 0.0 0.0 0.00 0.00 0.00 41 1030.1
20220123205637 2 156 0.0 0.0 0.00 0.00 0.00 40 1030.2
20220123204700 1 168 0.0 0.0 0.00 0.00 0.00 43 1030.5
20220123203722 1 170 0.0 1.6 0.00 0.03 0.00 41 1030.7
20220123202709 1 174 0.0 0.0 0.00 0.03 0.00 43 1030.9
20220123201707 1 96 0.0 1.6 0.00 0.03 0.00 43 1031.2
20220123200701 1 151 0.0 0.0 0.00 0.03 0.00 45 1031.6
20220123195704 0 155 0.0 0.0 0.00 0.03 0.00 44 1031.9
20220123194658 0 155 0.0 0.0 0.00 0.03 0.00 43 1032.3
20220123193659 0 135 0.0 0.0 0.00 0.03 0.00 45 1032.5
20220123192625 0 138 0.0 0.0 0.00 0.03 0.00 48 1032.8
20220123191650 0 165 0.0 0.0 0.00 0.03 0.00 52 1033.3
20220123190653 0 154 0.0 0.0 0.00 0.03 0.00 51 1033.5
20220123185627 0 260 0.0 1.6 0.00 0.05 0.00 50 1033.7
20220123184633 -1 247 0.0 0.0 0.00 0.05 0.00 54 1034.1
20220123183603 -1 245 0.0 0.0 0.00 0.05 0.00 54 1034.5
20220123182618 -1 246 0.0 0.0 0.00 0.05 0.00 56 1034.8
20220123181630 -2 246 0.0 0.0 0.00 0.05 0.00 56 1035.0
20220123180601 -3 169 0.0 0.0 0.00 0.05 0.00 58 1035.4
20220123175618 -3 188 0.0 1.6 0.00 0.05 0.00 59 1035.5
20220123174636 -4 171 0.0 1.6 0.00 0.05 0.00 60 1035.7
20220123173640 -5 150 0.0 0.0 0.00 0.05 0.00 61 1036.0
20220123172644 -5 167 0.0 0.0 0.00 0.05 0.00 63 1036.1
20220123171633 -6 154 0.0 0.0 0.00 0.05 0.00 65 1036.2
20220123170634 -6 154 0.0 0.0 0.00 0.05 0.00 67 1036.2
20220123165659 -7 174 0.0 0.0 0.00 0.05 0.00 69 1036.4
20220123164711 -8 174 0.0 0.0 0.00 0.05 0.00 69 1036.5
20220123163710 -8 174 0.0 0.0 0.00 0.05 0.00 70 1036.7
20220123162726 -8 124 0.0 0.0 0.00 0.05 0.00 72 1036.8
20220123161722 -9 124 0.0 0.0 0.00 0.05 0.00 73 1036.9
20220123160741 -10 124 0.0 0.0 0.00 0.05 0.00 74 1037.0
20220123155757 -10 124 0.0 0.0 0.00 0.05 0.00 74 1037.2
20220123154745 -11 124 0.0 0.0 0.00 0.05 0.00 75 1036.9
20220123153759 -12 124 0.0 0.0 0.00 0.05 0.00 75 1036.9
20220123152728 -12 124 0.0 0.0 0.00 0.05 0.00 75 1036.8
20220123151714 -12 124 0.0 0.0 0.00 0.05 0.00 76 1036.9
20220123150704 -13 124 0.0 0.0 0.00 0.05 0.00 75 1036.9
20220123145706 -13 125 0.0 0.0 0.00 0.05 0.00 74 1036.9
20220123144655 -13 125 0.0 0.0 0.00 0.05 0.00 75 1036.9
20220123143625 -13 125 0.0 0.0 0.00 0.05 0.00 75 1036.9
20220123142645 -13 125 0.0 0.0 0.00 0.05 0.00 75 1036.8
20220123141700 -13 125 0.0 0.0 0.00 0.05 0.00 75 1036.9
20220123140710 -13 125 0.0 0.0 0.00 0.05 0.00 74 1036.8
20220123135701 -13 125 0.0 0.0 0.00 0.05 0.00 73 1036.6
20220123134644 -13 125 0.0 0.0 0.00 0.05 0.00 74 1036.7
20220123133623 -13 125 0.0 0.0 0.00 0.05 0.00 74 1036.6
20220123132553 -13 125 0.0 0.0 0.00 0.05 0.00 74 1036.6
20220123131610 -13 125 0.0 0.0 0.00 0.05 0.00 75 1036.5
20220123130559 -12 125 0.0 0.0 0.00 0.05 0.00 74 1036.5
20220123125613 -12 125 0.0 0.0 0.00 0.05 0.00 76 1036.4
20220123124601 -12 125 0.0 0.0 0.00 0.05 0.00 75 1036.4
20220123123533 -12 125 0.0 0.0 0.00 0.05 0.00 75 1036.3
20220123122553 -12 125 0.0 0.0 0.00 0.05 0.00 76 1036.2
20220123121606 -12 125 0.0 0.0 0.00 0.05 0.00 75 1036.4
20220123120629 -12 125 0.0 0.0 0.00 0.05 0.00 75 1036.4
20220123115603 -12 125 0.0 0.0 0.00 0.05 0.00 75 1036.4